GW3047 Weather Reports


Display with metric or nautical units.
time (UTC)temp
F
wind
direction
speed
MPH
gust
MPH
rain 1hr
in
rain 24hr
in
rain mn
in
humidity
%
barometer
mb
20260902221611 99 199 8.0 18.0 0.00 0.00 0.00 23 1011.3
20260902220113 99 203 5.0 18.0 0.00 0.00 0.00 25 1011.4
20260902214609 99 201 7.0 21.0 0.00 0.00 0.00 24 1011.4
20260902213110 98 252 7.0 18.0 0.00 0.00 0.00 24 1011.6
20260902211608 99 199 9.0 17.0 0.00 0.00 0.00 24 1012.1
20260902210103 99 191 8.0 18.0 0.00 0.00 0.00 24 1012.2
20260902204609 99 196 7.0 20.0 0.00 0.00 0.00 24 1012.2
20260902203107 99 224 8.0 17.0 0.00 0.00 0.00 21 1012.4
20260902201604 99 162 7.0 16.0 0.00 0.00 0.00 20 1012.8
20260902200105 98 237 6.0 19.0 0.00 0.00 0.00 20 1013.0
20260902194610 98 199 8.0 18.0 0.00 0.00 0.00 20 1013.2
20260902193128 97 193 8.0 18.0 0.00 0.00 0.00 22 1013.3
20260902191605 96 200 11.0 19.0 0.00 0.00 0.00 23 1013.6
20260902190108 96 191 6.0 19.0 0.00 0.00 0.00 26 1013.8
20260902184658 95 214 4.0 13.0 0.00 0.00 0.00 27 1014.1
20260902183121 94 197 8.0 19.0 0.00 0.00 0.00 27 1014.3
20260902181605 94 201 8.0 15.0 0.00 0.00 0.00 27 1014.3
20260902180109 93 208 7.0 16.0 0.00 0.00 0.00 30 1014.5
20260902174608 92 203 7.0 15.0 0.00 0.00 0.00 31 1014.8
20260902173107 91 177 8.0 15.0 0.00 0.00 0.00 31 1015.0
20260902171606 91 208 6.0 14.0 0.00 0.00 0.00 33 1015.1
20260902164603 89 230 7.0 16.0 0.00 0.00 0.00 33 1015.3
20260902163103 88 187 12.0 20.0 0.00 0.00 0.00 35 1015.3
20260902161608 87 209 10.0 21.0 0.00 0.00 0.00 37 1015.3
20260902154603 84 200 6.0 19.0 0.00 0.00 0.00 40 1015.5
20260902153115 83 234 8.0 17.0 0.00 0.00 0.00 40 1015.5
20260902151610 81 191 7.0 15.0 0.00 0.00 0.00 45 1015.5
20260902150106 79 221 7.0 14.0 0.00 0.00 0.00 47 1015.5
20260902144607 78 194 6.0 13.0 0.00 0.00 0.00 49 1015.6
20260902143104 76 191 7.0 12.0 0.00 0.00 0.00 52 1015.7
20260902141611 74 205 4.0 8.0 0.00 0.00 0.00 56 1015.8
20260902140104 72 188 4.0 8.0 0.00 0.00 0.00 60 1015.7
20260902134612 71 177 3.0 9.0 0.00 0.00 0.00 61 1015.8
20260902133110 71 187 2.0 5.0 0.00 0.00 0.00 62 1015.7
20260902131603 70 179 2.0 5.0 0.00 0.00 0.00 62 1015.7
20260902130105 70 163 1.0 4.0 0.00 0.00 0.00 62 1015.8
20260902124616 70 190 2.0 6.0 0.00 0.00 0.00 62 1015.7
20260902123124 70 181 2.0 7.0 0.00 0.00 0.00 62 1015.5
20260902121608 70 0 1.0 6.0 0.00 0.00 0.00 62 1015.4
20260902120104 70 199 2.0 5.0 0.00 0.00 0.00 61 1015.1
20260902114608 71 189 1.0 5.0 0.00 0.00 0.00 61 1015.1
20260902113113 71 171 2.0 6.0 0.00 0.00 0.00 60 1015.1
20260902111602 72 199 2.0 9.0 0.00 0.00 0.00 59 1015.1
20260902110104 72 146 5.0 10.0 0.00 0.00 0.00 59 1015.3
20260902104600 73 193 4.0 11.0 0.00 0.00 0.00 58 1015.2
20260902103108 73 210 4.0 10.0 0.00 0.00 0.00 57 1015.1
20260902101602 73 211 4.0 10.0 0.00 0.00 0.00 56 1015.2
20260902100122 74 210 5.0 11.0 0.00 0.00 0.00 55 1015.2
20260902094603 74 176 5.0 10.0 0.00 0.00 0.00 55 1015.2
20260902093104 74 197 6.0 12.0 0.00 0.00 0.00 55 1015.1
20260902091610 74 185 3.0 11.0 0.00 0.00 0.00 55 1015.2
20260902090111 74 195 3.0 9.0 0.00 0.00 0.00 55 1015.3
20260902084603 74 197 3.0 8.0 0.00 0.00 0.00 56 1015.3
20260902083058 74 195 4.0 10.0 0.00 0.00 0.00 57 1015.3
20260902081601 74 188 2.0 5.0 0.00 0.00 0.00 59 1015.3
20260902080115 74 218 2.0 8.0 0.00 0.00 0.00 59 1015.3
20260902074618 73 196 5.0 8.0 0.00 0.00 0.00 59 1015.2
20260902073111 74 185 2.0 6.0 0.00 0.00 0.00 60 1015.0
20260902071630 74 158 3.0 6.0 0.00 0.00 0.00 59 1015.1
20260902070108 74 170 2.0 6.0 0.00 0.00 0.00 58 1015.1
20260902064611 74 193 2.0 5.0 0.00 0.00 0.00 57 1015.2
20260902063102 74 170 1.0 4.0 0.00 0.00 0.00 56 1015.2
20260902061611 75 175 2.0 7.0 0.00 0.00 0.00 56 1015.1
20260902060108 75 193 0.0 6.0 0.00 0.00 0.00 54 1015.1
20260902054601 76 177 2.0 5.0 0.00 0.00 0.00 54 1015.1
20260902053102 76 199 2.0 5.0 0.00 0.00 0.00 52 1015.1
20260902051559 77 219 1.0 5.0 0.00 0.00 0.00 52 1015.2
20260902050114 77 233 2.0 6.0 0.00 0.00 0.00 52 1015.3
20260902044604 77 178 1.0 4.0 0.00 0.00 0.00 52 1015.2
20260902043113 78 178 1.0 5.0 0.00 0.00 0.00 52 1015.2
20260902041604 78 147 1.0 4.0 0.00 0.00 0.00 51 1015.2
20260902040106 79 183 2.0 5.0 0.00 0.00 0.00 49 1015.2
20260902034601 79 178 1.0 4.0 0.00 0.00 0.00 47 1015.1
20260902033104 80 164 0.0 4.0 0.00 0.00 0.00 45 1015.0
20260902031604 81 241 1.0 5.0 0.00 0.00 0.00 45 1015.1
20260902024603 82 0 0.0 3.0 0.00 0.00 0.00 40 1014.2
20260902023109 82 226 0.0 3.0 0.00 0.00 0.00 39 1014.1
20260902021605 83 227 1.0 3.0 0.00 0.00 0.00 38 1014.0
20260902020059 83 227 2.0 8.0 0.00 0.00 0.00 37 1014.0
20260902014604 83 251 1.0 9.0 0.00 0.00 0.00 38 1014.0
20260902013058 83 270 3.0 11.0 0.00 0.00 0.00 40 1014.2
20260902011610 84 255 5.0 14.0 0.00 0.00 0.00 41 1014.5
20260902010122 86 243 5.0 11.0 0.00 0.00 0.00 38 1014.5
20260902004605 89 261 7.0 18.0 0.00 0.00 0.00 33 1014.5
20260902003106 92 197 4.0 9.0 0.00 0.00 0.00 27 1014.0
20260902001605 92 196 4.0 9.0 0.00 0.00 0.00 27 1013.9
20260902000105 93 197 3.0 10.0 0.00 0.00 0.00 27 1013.8
20260901234600 93 173 7.0 12.0 0.00 0.00 0.00 26 1013.8
20260901233105 94 202 5.0 13.0 0.00 0.00 0.00 25 1013.8
20260901231606 95 194 5.0 15.0 0.00 0.00 0.00 24 1013.7
20260901230105 96 189 5.0 13.0 0.00 0.00 0.00 24 1013.7
20260901224605 96 211 8.0 14.0 0.00 0.00 0.00 24 1013.7
20260901223106 97 252 6.0 15.0 0.00 0.00 0.00 24 1013.7